BWA212 TTPP-TTCP

Flight info

Callsign BWA212
Flight time 0h 15m
Altitude 7000
Route SASIM DCT NOTEL
Aircraft AT76/M-MSDFGRSB1/S

Departure

Time 2026-05-06 19:18
Airport Piarco International Airport (TTPP)

Arrival

Time 2026-05-06 19:33
Airport A.N.R. Robinson International Airport (TTCP)
Time Latitude Longitude Altitude Speed Heading
2026-05-06 19:06 10.60040 -61.33801 195 ft 0 kts 253°
2026-05-06 19:15 10.60034 -61.33800 205 ft 4 kts 167°
2026-05-06 19:15 10.59963 -61.33745 205 ft 18 kts 158°
2026-05-06 19:15 10.59822 -61.33736 195 ft 24 kts 181°
2026-05-06 19:15 10.59709 -61.33765 194 ft 10 kts 260°
2026-05-06 19:16 10.59708 -61.33948 200 ft 37 kts 269°
2026-05-06 19:16 10.59709 -61.34182 194 ft 29 kts 269°
2026-05-06 19:16 10.59707 -61.34371 194 ft 24 kts 268°
2026-05-06 19:16 10.59680 -61.34518 200 ft 16 kts 221°
2026-05-06 19:17 10.59605 -61.34528 190 ft 11 kts 180°
2026-05-06 19:17 10.59541 -61.34517 188 ft 6 kts 121°
2026-05-06 19:17 10.59536 -61.34479 188 ft 5 kts 90°
2026-05-06 19:17 10.59537 -61.34234 189 ft 70 kts 90°
2026-05-06 19:18 10.59536 -61.33534 222 ft 121 kts 90°
2026-05-06 19:18 10.59560 -61.32680 770 ft 123 kts 90°
2026-05-06 19:18 10.59591 -61.31801 1179 ft 133 kts 90°
2026-05-06 19:18 10.59650 -61.30778 1326 ft 156 kts 86°
2026-05-06 19:19 10.59743 -61.29622 1584 ft 167 kts 89°
2026-05-06 19:19 10.59787 -61.28432 1994 ft 168 kts 90°
2026-05-06 19:19 10.59814 -61.27250 2454 ft 166 kts 90°
2026-05-06 19:19 10.59828 -61.26076 2879 ft 167 kts 90°
2026-05-06 19:20 10.59829 -61.24899 3281 ft 166 kts 90°
2026-05-06 19:20 10.59825 -61.23725 3655 ft 166 kts 90°
2026-05-06 19:20 10.60116 -61.22606 3970 ft 172 kts 52°
2026-05-06 19:20 10.61181 -61.22010 4262 ft 180 kts 24°
2026-05-06 19:21 10.62366 -61.21571 4602 ft 182 kts 26°
2026-05-06 19:21 10.63552 -61.21118 4948 ft 183 kts 25°
2026-05-06 19:21 10.64752 -61.20668 5300 ft 184 kts 25°
2026-05-06 19:21 10.65960 -61.20217 5634 ft 186 kts 25°
2026-05-06 19:22 10.67178 -61.19759 5979 ft 187 kts 25°
2026-05-06 19:22 10.68400 -61.19297 6287 ft 188 kts 25°
2026-05-06 19:22 10.69618 -61.18834 6577 ft 189 kts 25°
2026-05-06 19:22 10.70857 -61.18381 6829 ft 192 kts 25°
2026-05-06 19:23 10.72162 -61.17901 6930 ft 205 kts 25°
2026-05-06 19:23 10.73541 -61.17384 6967 ft 217 kts 25°
2026-05-06 19:23 10.74989 -61.16830 6979 ft 226 kts 25°
2026-05-06 19:23 10.76486 -61.16251 6987 ft 234 kts 25°
2026-05-06 19:24 10.78029 -61.15666 6951 ft 237 kts 25°
2026-05-06 19:24 10.79587 -61.15083 6994 ft 240 kts 24°
2026-05-06 19:24 10.81172 -61.14484 6993 ft 244 kts 24°
2026-05-06 19:24 10.82748 -61.13892 6995 ft 246 kts 24°
2026-05-06 19:25 10.84353 -61.13287 7000 ft 247 kts 24°
2026-05-06 19:25 10.85966 -61.12678 7007 ft 247 kts 24°
2026-05-06 19:25 10.87575 -61.12062 7004 ft 244 kts 27°
2026-05-06 19:25 10.89017 -61.11185 7008 ft 242 kts 38°
2026-05-06 19:26 10.90403 -61.10208 7007 ft 243 kts 39°
2026-05-06 19:26 10.91788 -61.09216 7008 ft 244 kts 39°
2026-05-06 19:26 10.93183 -61.08219 7008 ft 245 kts 38°
2026-05-06 19:26 10.94604 -61.07235 6860 ft 251 kts 38°
2026-05-06 19:27 10.96067 -61.06227 6486 ft 254 kts 38°
2026-05-06 19:27 10.97529 -61.05225 6103 ft 252 kts 37°
2026-05-06 19:27 10.98982 -61.04230 5733 ft 251 kts 38°
2026-05-06 19:27 11.00428 -61.03239 5358 ft 250 kts 38°
2026-05-06 19:28 11.01839 -61.02270 4985 ft 245 kts 38°
2026-05-06 19:28 11.02788 -61.01621 4759 ft 241 kts 37°
2026-05-06 19:28 11.04164 -61.00677 4460 ft 236 kts 38°
2026-05-06 19:28 11.05945 -60.99457 4062 ft 231 kts 38°
2026-05-06 19:29 11.07278 -60.98542 3711 ft 231 kts 37°
2026-05-06 19:29 11.08177 -60.97924 3468 ft 231 kts 38°
2026-05-06 19:29 11.09934 -60.96720 3002 ft 229 kts 37°
2026-05-06 19:29 11.10825 -60.96106 2765 ft 228 kts 37°
2026-05-06 19:30 11.12139 -60.95202 2413 ft 227 kts 37°
2026-05-06 19:30 11.13442 -60.94309 2142 ft 224 kts 37°
2026-05-06 19:30 11.14676 -60.93416 1894 ft 214 kts 45°
2026-05-06 19:30 11.15333 -60.92177 1647 ft 186 kts 80°
2026-05-06 19:31 11.15487 -60.90958 1399 ft 160 kts 87°
2026-05-06 19:31 11.15499 -60.89902 1193 ft 140 kts 92°
2026-05-06 19:31 11.15377 -60.88208 900 ft 103 kts 96°
2026-05-06 19:32 11.15295 -60.87500 707 ft 101 kts 98°
2026-05-06 19:32 11.15206 -60.86780 568 ft 103 kts 95°
2026-05-06 19:32 11.15162 -60.86033 424 ft 111 kts 94°
2026-05-06 19:32 11.15105 -60.85244 295 ft 114 kts 94°
2026-05-06 19:33 11.15052 -60.84444 114 ft 112 kts 95°
2026-05-06 19:33 11.14998 -60.83673 36 ft 101 kts 95°
2026-05-06 19:33 11.14957 -60.83116 34 ft 48 kts 94°
2026-05-06 19:33 11.14938 -60.82881 33 ft 17 kts 103°
2026-05-06 19:34 11.14908 -60.82817 33 ft 5 kts 32°
2026-05-06 19:34 11.14937 -60.82859 33 ft 13 kts 276°
2026-05-06 19:34 11.14953 -60.83026 34 ft 29 kts 274°
2026-05-06 19:34 11.14964 -60.83212 34 ft 24 kts 274°
2026-05-06 19:35 11.14977 -60.83375 33 ft 22 kts 275°
2026-05-06 19:35 11.14989 -60.83529 32 ft 21 kts 274°
2026-05-06 19:35 11.15002 -60.83710 31 ft 28 kts 275°
2026-05-06 19:35 11.15101 -60.83868 31 ft 26 kts 305°
2026-05-06 19:36 11.15129 -60.83999 31 ft 8 kts 320°
2026-05-06 19:36 11.15183 -60.84004 32 ft 8 kts
2026-05-06 19:36 11.15193 -60.84003 32 ft 0 kts